Terug naar catalogus

SL-8 R/B

ActiefPO
NORAD 11681·ROCKET BODY·🇷🇺 Russia

Gelanceerd Jan 25, 1980 vanaf Plesetsk Cosmodrome

Loading…

Volgende Passages (komende 24 uur)

TLE

VersSource: Space-Track

Epoch: Sep 14, 2026, 09:35 UTC

1 11681U 80007B   26257.39962480  .00000116  00000-0  10454-3 0  9990
2 11681  82.9278  67.1279 0034843 285.6249  93.4868 13.75742615336512

Volg SL-8 R/B in realtime met AllMySat

Download on the App Store